Wind_Speed
51 53 57 64 68 73 79 84 88 94 95 96 99 102 105 111 116 115 115 115 116 117 116 114 113 113 111 109 107 105 106 109 110 116 113 117 116 113 112 111 110 112 112 115
47 50 55 56 57 61 65 71 75 82 88 91 91 86 88 94 94 98 100 101 102 103 107 109 110 112 112 106 109 108 110 113 112 110 110 107 106 105 102 100 100 101 101 103
39 48 52 55 57 59 62 65 67 72 76 76 78 78 84 83 85 87 89 91 90 91 92 93 94 95 95 96 97 102 101 98 100 100 99 99 99 98 99 98 97 97 95 94
27 30 33 40 48 56 63 65 65 66 66 68 71 69 74 76 78 80 84 85 86 88 87 86 85 83 87 89 90 92 96 94 93 92 91 89 84 80 78 75 73 72 73 72
37 37 36 36 37 38 39 45 48 51 55 61 64 66 65 72 74 76 77 79 79 81 82 82 82 79 80 80 77 74 74 70 66 63 62 62 62 62 64 67 67 67 63 63
36 39 43 44 46 43 41 44 44 41 42 40 44 46 45 48 53 59 60 61 57 62 64 62 58 60 60 59 59 58 57 58 59 64 63 62 62 64 63 65 66 65 65 65
48 46 43 39 43 53 47 47 51 49 48 42 48 46 43 51 50 49 54 57 53 55 56 56 56 60 60 58 59 58 61 62 61 65 69 68 67 69 70 70 71 69 67 69
57 59 60 58 53 53 51 56 59 55 53 51 53 50 49 55 56 57 59 64 58 60 61 59 65 65 62 63 63 63 66 68 68 70 71 74 75 74 74 74 74 73 73 74
57 59 65 65 68 66 65 63 63 66 61 62 62 60 62 67 62 64 67 66 67 64 65 65 67 66 67 70 68 69 72 72 73 75 76 76 79 81 81 82 80 78 78 79
63 63 68 69 72 76 76 75 76 76 73 71 68 69 69 70 70 72 74 73 74 71 70 75 75 72 75 75 76 77 78 79 78 81 82 82 84 85 86 88 88 86 84 86
67 69 78 75 78 80 83 84 83 83 81 79 75 75 80 72 76 79 80 82 79 76 74 77 77 79 85 83 82 84 84 84 86 88 90 89 87 90 91 91 93 93 94 92
70 68 71 80 82 85 86 88 90 91 87 86 85 80 83 82 85 85 88 88 86 84 84 82 83 87 88 91 92 94 94 91 93 94 94 98 100 97 99 98 97 98 97 92
66 61 65 72 74 84 88 91 91 93 94 90 95 87 92 92 92 92 88 89 91 89 88 89 91 94 94 95 97 100 100 99 101 102 103 103 106 109 107 104 100 96 90 88
62 60 63 68 76 80 83 90 93 95 94 94 93 95 95 97 99 97 97 95 93 94 96 98 99 100 101 102 103 104 108 109 110 111 111 110 109 110 108 105 93 84 81 81
60 60 63 64 71 82 85 85 87 93 93 98 92 101 94 100 103 104 97 99 100 101 102 104 105 107 108 109 110 112 112 114 116 116 111 105 102 96 92 91 86 81 78 76
59 58 58 59 67 70 72 83 91 92 90 90 88 95 97 100 100 99 101 103 103 104 104 105 108 110 111 112 111 108 104 102 104 100 95 93 91 88 84 81 80 77 75 74
60 55 54 55 61 62 65 70 73 75 78 81 80 82 88 90 92 94 97 100 99 98 99 99 98 98 97 97 96 95 95 93 95 89 85 85 82 81 79 75 75 77 76 73
55 53 52 55 58 58 61 61 62 65 68 68 68 69 70 69 71 75 83 84 85 85 85 84 84 83 85 86 85 83 83 83 83 81 80 77 75 74 73 72 74 73 69 65
52 50 50 50 44 42 42 42 43 46 47 52 55 55 57 59 63 71 70 69 68 66 65 65 68 72 75 77 74 73 71 68 68 67 69 70 68 68 68 65 61 59 55 55
44 46 41 34 30 30 29 28 31 32 31 34 35 39 43 47 49 54 52 49 49 49 52 54 53 50 52 53 50 50 52 51 50 48 48 52 54 52 50 50 48 46 44 47
39 34 30 27 25 23 23 21 23 23 23 24 27 30 33 35 35 39 39 40 38 39 32 30 33 35 35 34 33 34 34 33 32 32 33 37 39 38 36 35 34 35 35 34
30 28 26 24 22 21 21 21 21 20 20 22 22 23 26 27 29 30 30 29 20 12 14 15 18 21 24 26 26 25 25 23 22 22 23 26 25 27 29 30 27 24 21 24
25 25 23 21 20 20 18 18 17 17 18 18 20 19 22 22 23 21 11 1 4 2 9 13 16 20 22 24 25 24 23 22 22 19 18 19 21 23 25 26 25 24 22 21
23 22 20 20 18 16 16 16 16 16 15 15 17 17 21 18 4 9 15 10 4 4 7 9 18 30 34 33 34 31 27 24 22 21 21 23 24 25 25 25 26 24 24 24
19 18 18 16 14 14 13 14 14 14 15 15 19 18 6 16 22 19 16 13 14 15 16 18 22 27 30 38 41 39 36 29 23 21 20 20 22 23 24 25 26 25 25 26
16 16 15 14 14 13 14 16 15 15 13 17 12 10 26 30 23 23 22 18 16 14 15 26 28 31 33 38 49 50 44 35 25 22 20 21 23 26 28 31 31 29 29 28
Wind_Direction
235 235 236 237 238 239 241 243 244 245 248 246 249 251 253 256 254 256 258 259 261 261 264 264 265 267 269 269 267 268 269 269 271 273 272 274 273 274 275 277 277 277 276 276
243 242 242 243 244 245 245 246 246 248 249 251 250 254 256 256 257 257 258 261 262 263 264 264 264 265 265 267 268 268 268 270 271 271 272 272 272 273 274 274 275 275 277 277
249 249 249 247 246 246 247 248 248 250 252 253 253 252 253 255 257 258 258 259 261 262 262 264 264 264 266 266 265 267 268 268 269 270 269 269 271 272 274 274 275 275 276 276
273 262 253 250 251 251 250 251 251 253 254 254 254 253 255 256 256 257 259 260 260 262 263 264 266 267 263 264 265 266 269 268 269 270 271 270 272 275 276 276 277 278 281 282
272 273 275 274 267 260 258 258 255 255 255 256 258 256 258 259 259 259 260 261 262 262 262 264 264 264 265 265 265 266 267 270 270 269 272 274 275 276 277 280 282 283 282 284
260 270 273 269 265 270 269 265 263 259 258 257 258 256 253 255 258 258 259 261 260 260 262 262 260 260 261 263 264 266 269 271 275 277 276 278 279 281 281 282 283 286 288 285
249 248 246 252 269 267 264 260 265 266 266 266 265 263 259 261 262 265 265 265 263 265 266 264 268 268 267 269 271 272 274 274 274 276 279 278 279 280 281 281 282 284 285 286
254 255 255 250 251 254 252 258 264 259 262 264 270 270 262 263 263 265 266 268 266 267 269 270 268 271 274 274 275 275 275 275 276 276 278 280 281 280 281 283 284 284 284 284
256 256 258 256 254 254 254 256 255 256 256 255 258 260 259 260 262 263 264 267 270 270 272 272 273 274 275 274 275 275 275 275 276 278 279 281 282 282 283 283 284 285 284 284
257 259 259 258 258 255 252 253 255 257 255 257 257 257 259 261 262 264 266 266 266 270 274 275 276 278 278 277 277 277 277 278 279 279 278 278 279 280 282 283 284 284 283 283
261 260 261 257 256 256 257 254 254 255 257 257 256 258 259 259 263 264 266 267 269 271 270 272 275 279 280 280 279 279 278 278 279 277 278 277 277 279 279 280 281 282 283 284
265 266 258 255 254 252 250 253 255 255 255 256 257 256 260 259 260 261 264 267 269 270 271 272 274 273 275 279 279 279 279 279 279 281 280 282 282 280 279 279 281 281 281 281
268 266 259 253 252 254 253 252 252 255 255 256 257 258 258 261 261 262 263 266 268 270 272 272 273 273 274 275 277 278 279 279 279 279 280 280 281 282 282 280 279 280 279 278
269 267 257 251 251 253 254 254 253 254 255 255 258 259 261 261 262 264 265 267 270 271 271 271 273 275 276 277 278 279 280 281 281 281 280 280 279 280 280 280 279 277 275 274
275 270 263 257 253 252 255 256 258 258 258 257 256 258 259 262 264 267 270 271 272 274 274 276 277 278 278 279 279 279 279 279 280 279 279 280 279 278 277 277 278 278 276 275
278 275 272 267 262 259 256 256 257 261 262 261 257 259 261 260 262 265 267 270 270 272 274 275 275 276 277 277 279 279 279 278 278 278 278 277 276 276 276 276 276 276 273 270
279 278 277 273 269 266 263 259 260 261 262 262 262 261 261 264 266 266 267 268 270 273 273 275 277 278 280 281 280 279 278 278 277 277 275 275 275 275 275 275 274 274 272 273
283 283 281 274 271 270 267 266 264 262 262 262 261 260 261 261 263 265 266 269 272 274 276 279 281 282 282 282 283 282 280 278 278 278 277 275 274 274 274 274 273 275 276 273
290 286 282 280 276 272 268 267 267 266 264 261 260 260 260 259 260 263 267 271 273 277 280 283 285 285 287 288 288 286 283 281 277 275 273 272 270 268 269 273 274 272 270 268
284 283 281 274 271 268 268 266 266 265 262 261 260 258 258 259 263 268 272 276 279 283 283 285 293 297 297 297 297 296 289 283 279 279 274 266 264 266 267 268 270 270 268 266
287 281 272 269 267 266 267 264 263 263 261 260 260 262 266 269 270 276 280 282 285 290 300 296 291 294 298 302 307 310 303 300 292 282 273 264 261 265 266 266 266 267 261 260
278 273 269 266 266 266 264 263 263 264 265 265 266 268 270 271 272 272 279 288 294 301 280 290 297 310 316 318 319 324 326 319 303 291 278 266 258 257 257 258 258 260 260 257
273 270 268 263 263 261 262 260 261 260 264 270 272 272 273 282 289 289 281 319 149 247 288 313 334 338 339 334 329 323 319 313 308 301 291 280 270 269 270 267 263 259 251 248
268 267 262 260 259 258 258 262 262 268 273 280 292 294 297 290 260 121 126 126 143 57 37 24 44 38 25 16 12 7 357 340 328 312 301 296 288 281 277 272 264 262 255 247
264 259 256 258 255 257 260 265 275 285 293 298 297 294 259 132 124 128 127 121 92 66 59 60 58 49 37 33 25 17 8 355 337 320 313 306 296 288 280 268 264 260 255 252
251 249 250 250 251 256 261 270 276 285 287 296 286 158 131 132 132 133 125 102 77 64 61 63 57 50 40 32 22 17 6 357 349 337 325 314 305 292 282 273 264 260 256 252
Height
10711 10717 10718 10717 10722 10724 10727 10730 10736 10733 10730 10744 10748 10754 10756 10754 10759 10765 10764 10764 10765 10774 10772 10775 10777 10780 10782 10788 10787 10786 10775 10774 10775 10778 10782 10775 10773 10768 10767 10769 10769 10768 10771 10767
10699 10701 10700 10706 10711 10713 10714 10715 10718 10716 10719 10724 10736 10741 10738 10732 10738 10743 10746 10746 10747 10749 10748 10751 10756 10759 10762 10766 10760 10762 10756 10757 10760 10760 10755 10755 10749 10748 10748 10747 10746 10746 10747 10741
10689 10689 10694 10694 10696 10698 10698 10701 10703 10704 10706 10715 10717 10724 10717 10720 10723 10726 10725 10727 10727 10727 10729 10729 10732 10738 10745 10741 10736 10731 10742 10740 10739 10737 10739 10735 10730 10729 10727 10728 10729 10727 10729 10731
10683 10683 10684 10683 10684 10685 10686 10687 10690 10694 10696 10699 10697 10707 10705 10705 10706 10704 10705 10707 10708 10710 10711 10713 10719 10722 10716 10720 10720 10719 10714 10720 10719 10718 10717 10717 10715 10713 10708 10709 10709 10711 10710 10713
10672 10673 10676 10677 10676 10676 10677 10676 10678 10679 10680 10682 10685 10691 10689 10686 10687 10687 10687 10689 10693 10693 10695 10702 10701 10698 10700 10700 10701 10702 10701 10698 10699 10699 10697 10696 10696 10697 10694 10690 10690 10694 10703 10703
10662 10663 10666 10665 10663 10667 10670 10666 10667 10669 10670 10675 10673 10675 10677 10673 10671 10672 10673 10675 10679 10674 10684 10683 10683 10682 10681 10683 10685 10688 10687 10686 10685 10679 10680 10682 10680 10678 10678 10675 10675 10678 10682 10683
10653 10651 10653 10653 10655 10655 10657 10655 10657 10660 10662 10668 10661 10664 10669 10660 10663 10665 10660 10657 10666 10666 10667 10668 10671 10665 10666 10672 10671 10674 10672 10671 10672 10667 10662 10664 10664 10662 10660 10660 10658 10663 10667 10663
10642 10642 10639 10641 10643 10643 10642 10645 10645 10645 10649 10654 10653 10657 10657 10648 10648 10649 10649 10643 10654 10654 10654 10658 10652 10651 10655 10654 10657 10658 10655 10653 10655 10651 10648 10645 10644 10644 10643 10642 10642 10645 10646 10646
10627 10627 10622 10632 10629 10631 10632 10632 10629 10627 10638 10638 10639 10641 10640 10631 10639 10636 10632 10634 10634 10638 10640 10640 10637 10638 10639 10637 10640 10639 10636 10637 10636 10632 10630 10630 10624 10621 10621 10619 10621 10625 10625 10622
10612 10613 10610 10609 10611 10612 10611 10611 10610 10613 10620 10621 10627 10625 10622 10621 10624 10621 10620 10620 10618 10623 10625 10619 10619 10622 10619 10619 10619 10617 10615 10616 10616 10612 10610 10610 10606 10602 10600 10597 10596 10601 10601 10599
10594 10597 10585 10593 10590 10591 10590 10594 10594 10592 10598 10605 10611 10610 10599 10615 10608 10601 10602 10601 10604 10607 10610 10607 10606 10601 10594 10594 10596 10594 10595 10596 10592 10588 10585 10584 10586 10580 10578 10578 10574 10574 10572 10572
10572 10574 10575 10567 10567 10567 10572 10572 10572 10571 10582 10583 10587 10597 10584 10594 10587 10587 10583 10582 10587 10589 10589 10591 10589 10582 10579 10573 10572 10569 10568 10572 10566 10562 10561 10554 10548 10554 10550 10553 10553 10548 10548 10546
10553 10554 10551 10549 10544 10542 10550 10549 10551 10550 10557 10567 10559 10578 10565 10567 10567 10565 10572 10568 10565 10569 10570 10568 10565 10560 10560 10559 10553 10544 10541 10542 10538 10535 10532 10531 10524 10514 10515 10518 10524 10525 10521 10522
10533 10530 10529 10531 10527 10523 10527 10527 10530 10529 10536 10541 10544 10545 10546 10546 10542 10544 10545 10549 10553 10552 10546 10542 10541 10539 10536 10530 10528 10524 10513 10509 10505 10500 10498 10498 10496 10490 10486 10483 10487 10494 10496 10495
10513 10510 10505 10509 10508 10508 10508 10511 10507 10506 10516 10510 10531 10516 10530 10522 10517 10516 10534 10528 10526 10527 10524 10521 10517 10513 10507 10502 10497 10491 10488 10480 10473 10467 10465 10466 10464 10463 10459 10456 10457 10462 10466 10468
10495 10490 10489 10491 10484 10487 10491 10485 10485 10486 10489 10489 10502 10497 10497 10500 10506 10510 10504 10504 10503 10502 10503 10498 10491 10484 10478 10473 10468 10461 10453 10449 10442 10440 10439 10435 10433 10433 10432 10431 10431 10436 10439 10442
10474 10473 10472 10470 10462 10465 10466 10462 10466 10467 10468 10466 10473 10476 10476 10482 10486 10486 10482 10478 10481 10482 10476 10471 10467 10460 10453 10445 10437 10432 10425 10420 10411 10411 10411 10408 10407 10406 10406 10409 10409 10407 10409 10411
10455 10454 10452 10450 10445 10446 10443 10443 10446 10446 10446 10449 10453 10455 10458 10464 10464 10462 10457 10461 10462 10458 10456 10452 10446 10439 10429 10419 10410 10404 10396 10392 10385 10384 10382 10382 10383 10383 10383 10384 10383 10384 10384 10384
10438 10435 10433 10429 10429 10428 10426 10427 10427 10428 10432 10429 10431 10438 10441 10443 10445 10439 10444 10446 10445 10444 10440 10434 10427 10418 10408 10397 10388 10378 10369 10365 10362 10359 10357 10357 10361 10362 10361 10363 10363 10364 10362 10359
10425 10421 10418 10418 10418 10417 10417 10417 10416 10416 10420 10419 10421 10423 10425 10428 10431 10427 10430 10432 10431 10429 10425 10419 10411 10402 10392 10381 10370 10359 10352 10346 10342 10341 10339 10339 10341 10344 10346 10345 10345 10346 10346 10343
10409 10407 10407 10408 10408 10410 10409 10410 10409 10410 10411 10411 10413 10415 10416 10418 10421 10417 10417 10417 10418 10415 10410 10406 10400 10393 10383 10373 10362 10351 10341 10334 10329 10327 10327 10328 10329 10331 10332 10333 10333 10332 10332 10331
10399 10400 10399 10400 10401 10402 10402 10403 10403 10404 10404 10405 10407 10409 10409 10410 10410 10411 10409 10409 10407 10407 10405 10400 10393 10385 10376 10367 10357 10347 10339 10331 10326 10323 10321 10321 10321 10322 10323 10324 10325 10324 10323 10322
10392 10392 10393 10394 10395 10394 10396 10396 10397 10398 10399 10400 10401 10402 10401 10401 10401 10401 10402 10403 10404 10403 10400 10395 10389 10381 10372 10363 10354 10346 10338 10331 10326 10321 10319 10317 10315 10314 10314 10314 10315 10315 10315 10316
10385 10386 10386 10387 10388 10389 10390 10391 10391 10392 10393 10394 10394 10393 10394 10393 10395 10397 10401 10403 10403 10400 10397 10392 10386 10378 10371 10362 10353 10344 10336 10329 10323 10318 10314 10311 10309 10307 10306 10305 10305 10305 10306 10307
10380 10380 10380 10382 10383 10384 10385 10386 10386 10387 10388 10389 10388 10387 10388 10390 10394 10400 10402 10403 10401 10399 10395 10391 10384 10378 10372 10363 10355 10346 10337 10329 10322 10316 10311 10307 10303 10300 10297 10296 10295 10295 10296 10298
10375 10375 10376 10377 10378 10380 10380 10381 10382 10383 10384 10384 10383 10385 10387 10393 10397 10400 10401 10401 10400 10398 10394 10389 10383 10377 10370 10362 10356 10346 10336 10326 10318 10312 10306 10301 10296 10291 10288 10286 10285 10285 10285 10288